FENGYUN 1C DEB

Satellite information

Favourite Embed

Satellite Type and Status

DEBRISIN ORBIT

Key statistics

Satellite FENGYUN 1C DEB at a glance.

Uptime

9669

Days in orbit

Revolutions

≈ 14.4

Per day

Orbit

SSO

Sun Synchronous Orbit

Inclination

98.8

Latest

Satellite identification and parameters

Extended collection of information and parameters for FENGYUN 1C DEB.

Object identification

Identified? True

Debris? True

Object name: FENGYUN 1C DEB

International designator: 1999-025CYV

Object number (NORAD): 32352

Object ID (CCSDS): 32352

Country: PEOPLES REPUBLIC OF CHINA (PRC)

Current information (Y/N): Y

RCS size: SMALL

Orbital parameters

Period: 99.911 minutes

Inclination: 98.7722 deg

SMA: 7132.393 km

Apoapsis: 841.041 km

Periapsis: 667.475 km

RAAN: 220.3159 deg

Eccentricy: 0.01216747

Argument of periapsis: 306.54 deg

Mean anomaly: 52.4635 deg

Mean motion: 14.41285026 rev/day

Mean motion (dot): 0.00001827 rev/day2

B* drag term: 0.00053218723 1/REarth

Two-line elements (TLE)

Creation date: Oct. 28, 2025, 7:11 p.m.

Reference frame: TEME

Reference center: EARTH

Epoch: Oct. 28, 2025, 12:47 p.m. UTC

TLE line 0: 0 FENGYUN 1C DEB

TLE line 1: 1 32352U 99025CYV 25301.53286105 .00001827 00000-0 53219-3 0 9992

TLE line 2: 2 32352 98.7722 220.3159 0121675 306.5400 52.4635 14.41285026646187

Live tracking on map

Real-time ground track for satellite FENGYUN 1C DEB.

In-orbit conjunctions

A list of the most updated potential collisions computed for object FENGYUN 1C DEB.

Target Orbit TCA Probability of collision Miss distance Type
DELTA 1 DEB SSO 2024-11-13 18:40:25 0.003315427 161.0 (m) DEBRIS
FREGAT DEB MEO 2024-09-24 21:59:49 0.0001169532 152.0 (m) DEBRIS

Associated space launch

Chinese polar orbiting meteorological satellite

FENGYUN 1C DEB was lifted into orbit during the mission ‘Long March 4B | Feng Yun 1C’, on board a Long March 4B space rocket.

The launch took place on May 10, 1999, 1:33 a.m. from Launch Complex 7.

For more information about the launch, click the button.

Launch to space Long March 4B | Feng Yun 1C
Long March 4B | Feng Yun 1C

Agency: N/A

Status: Launch Successful

Launch date: May 10, 1999, 1:33 a.m. UTC

Rocket: Long March 4B

Launch pad: Launch Complex 7

Location: Taiyuan Satellite Launch Center, People's Republic of China

...

Latest news about this satellite

There are no fresh news available about this satellite. Check back as we update our databases every day.


Newsletter sign-up

Weekly statistics, charts and insights to help you stay on top of the space industry.